#timestamp,LO_Frequency,Hit,StdDev 
1553824815.3,286046997.3,N
1553824835.1,286046999.2,N
1553824855.8,286047000.9,N
1553824875.7,286047002.8,N
1553824895.5,286047000.0,N
1553824915.4,286047000.0,N
1553824935.2,286047000.2,N
1553824955.0,286047000.1,N
1553824955.9,286047000.1,N
1553824975.8,286047001.9,N
1553824995.6,286047006.0,Y
1553825015.5,286047007.2,P
1553825035.3,286047007.4,N
1553825055.1,286047004.7,N
1553825075.9,286047007.1,N
1553825095.7,286047006.8,N
1553825115.5,286047007.5,N
1553825135.4,286047003.0,N
1553825155.2,286047004.4,N
1553825175.1,286047004.3,N
1553825176.0,286047004.3,N
1553825195.8,286047002.1,N
1553825215.6,286047002.2,N
1553825235.5,286047001.6,N
1553825255.3,286047001.8,N
1553825275.1,286047005.2,N
1553825295.9,286047003.1,N
1553825315.7,286047001.7,N
1553825335.6,286047002.5,N
1553825355.4,286047003.7,N
1553825375.2,286047003.6,N
1553825395.1,286047001.9,N
1553825396.0,286047001.9,N
1553825415.8,286047003.4,N
1553825435.6,286047004.6,N
1553825455.5,286047004.9,N
1553825475.3,286047004.9,N
1553825495.2,286047004.8,N
1553825515.0,286047004.7,N
1553825515.9,286047004.7,N
1553825535.7,286047003.9,N
1553825555.6,286047002.2,N
1553825575.4,286046999.8,N
1553825595.3,286047001.0,N
1553825615.1,286047000.2,N
1553825616.0,286047000.2,N
1553825635.8,286047000.4,N
1553825655.7,286046998.2,N
1553825675.5,286046998.7,N
1553825695.4,286046999.0,N
1553825715.2,286046996.8,N
1553825735.0,286046996.8,N
1553825735.9,286046996.8,N
1553825755.8,286046996.6,N
1553825775.6,286046999.2,N
1553825795.4,286046999.5,N
1553825815.3,286046998.9,N
1553825835.1,286046998.4,N
1553825855.9,286046997.0,N
1553825875.7,286046999.5,N
1553825895.5,286046997.2,N
1553825915.4,286046999.6,N
1553825935.2,286046997.1,N
1553825955.0,286046999.2,N
1553825955.9,286046999.2,N
1553825975.8,286046998.3,N
1553825995.6,286046998.7,N
1553826015.5,286046996.7,N
1553826035.3,286046997.2,N
1553826055.1,286046997.0,N
1553826075.9,286047001.0,N
1553826095.7,286047002.8,N
1553826115.6,286047002.0,N
1553826135.4,286047000.5,N
1553826155.2,286047000.5,N
1553826175.1,286047000.6,N
1553826176.0,286047000.6,N
1553826195.8,286046998.8,N
1553826215.6,286046998.4,N
1553826235.5,286046998.4,N
1553826255.3,286046998.8,N
1553826275.2,286047001.2,N
1553826295.9,286046999.8,N
1553826315.7,286047000.8,N
1553826335.6,286047002.8,N
1553826355.4,286047003.8,N
1553826375.3,286047004.5,N
1553826395.1,286047001.3,N
1553826396.0,286047001.3,N
1553826415.8,286047002.3,N
1553826435.7,286047002.1,N
1553826455.5,286047001.4,N
1553826475.3,286047000.5,N
1553826495.2,286046999.6,N
1553826515.0,286046997.0,N
1553826515.9,286046997.0,N
1553826535.8,286046999.2,N
1553826555.6,286046999.1,N
1553826575.4,286046999.1,N
1553826595.3,286046998.2,N
1553826615.1,286046999.0,N
1553826635.9,286047002.8,N
1553826655.7,286046998.1,N
1553826675.5,286047001.2,N
1553826695.4,286046999.4,N
1553826715.2,286046996.8,N
1553826735.0,286046998.4,N
1553826735.9,286046998.4,N
1553826755.8,286046996.9,N
1553826775.6,286046996.7,N
1553826795.5,286046999.1,N
1553826815.3,286046999.1,N
1553826835.1,286046999.5,N
1553826855.9,286046996.9,N
1553826875.7,286046998.5,N
1553826895.5,286046999.9,N
1553826915.4,286047000.9,N
1553826935.2,286046999.0,N
1553826955.1,286046999.2,N
1553826956.0,286046999.2,N
1553826975.8,286046999.1,N
1553826995.6,286046999.1,N
1553827015.5,286047001.1,N
1553827035.3,286047000.8,N
1553827055.2,286047001.2,N
1553827075.9,286047000.6,N
1553827095.7,286047000.5,N
1553827115.6,286047000.9,N
1553827135.4,286047000.4,N
1553827155.2,286047000.8,N
1553827175.1,286046998.3,N
1553827176.0,286046998.3,N
1553827195.8,286046998.2,N
1553827215.7,286047000.6,N
1553827235.5,286047002.2,N
1553827255.3,286047002.0,N
1553827275.2,286047001.3,N
1553827295.0,286047004.2,N
1553827295.9,286047004.2,N
1553827315.8,286047002.5,N
1553827335.6,286046998.5,N
1553827355.4,286046998.3,N
1553827375.3,286046999.6,N
1553827395.1,286046999.2,N
1553827415.8,286046998.0,N
1553827435.7,286046997.7,N
1553827455.5,286046999.6,N
1553827475.4,286046997.2,N
1553827495.2,286046996.9,N
1553827515.0,286046997.2,N
1553827515.9,286046997.2,N
1553827535.8,286046997.3,N
1553827555.6,286046997.2,N
1553827575.4,286046997.8,N
1553827595.3,286046996.7,N
1553827615.1,286046996.5,N
1553827635.9,286046998.8,N
1553827655.7,286046998.9,N
1553827675.5,286046998.4,N
1553827695.4,286047001.0,N
1553827715.2,286046998.1,N
1553827735.0,286046998.7,N
1553827736.0,286046998.7,N
1553827755.8,286046999.5,N
1553827775.6,286046996.8,N
1553827795.5,286046995.4,N
1553827815.3,286046993.9,N
1553827835.1,286046990.7,Y
1553827855.9,286046989.7,P
1553827875.7,286046986.0,P
1553827895.6,286046984.9,N
1553827915.4,286046980.9,Y
1553827935.2,286046989.0,P
1553827955.1,286046989.8,P
1553827956.0,286046989.8,P
1553827975.8,286046987.6,Y
1553827995.7,286046999.0,P
1553828015.5,286046997.8,N
1553828035.3,286046996.8,N
1553828055.2,286046994.9,N
1553828075.0,286046993.6,N
1553828075.9,286046993.6,N
1553828095.7,286046994.3,N
1553828115.6,286046995.8,N
1553828135.4,286046996.9,N
1553828155.3,286046997.1,N
1553828175.1,286046997.2,N
1553828195.8,286047002.4,N
1553828215.7,286047003.4,N
1553828235.5,286047003.7,N
1553828255.3,286047006.0,N
1553828275.2,286047005.6,N
1553828295.0,286047005.5,N
1553828295.9,286047005.5,N
1553828315.8,286047006.4,N
1553828335.6,286047006.1,N
1553828355.4,286047008.9,N
1553828375.3,286047008.2,N
1553828395.1,286047009.9,N
